sat.trackr.live / text

‹ back to catalog

STARLINK-5704

NORAD 55486 · 2023-015AP

PAYLOAD ACTIVE UNKNOWN

§ Identity

Operator
Country
US
Launch date
2023-02-02
Launch site
AFETR
Launch vehicle
Mass (kg)
RCS (m²)

Purposes: comms

External: N2YO · Heavens-Above · Gunter

§ Orbital elements

Epoch: 2026-09-20T10:42:27.636480Z

Period
93.12 min
Inclination
43.0002°
Eccentricity
0.0001069
Mean motion
15.46424703 rev/d
Perigee alt
426.5 km
Apogee alt
427.9 km
Semi-major
6,805.3 km
B*
1.6543e-4
RAAN
316.9429°
Arg perigee
300.5254°
Mean anomaly
59.5499°
Rev number
20,041

§ Raw data

STARLINK-57041 55486U 23015AP  26263.44615320  .00008073  00000+0  16543-3 0  99922 55486  43.0002 316.9429 0001069 300.5254  59.5499 15.46424703200412

JSON: /api/v1/satellites/55486 · /tle

For live sub-satellite position, see the globe view (requires WebGL).

§ Visibility from observer

Set your observer location to see the next 7 days of passes ≥ 10°. The values pass through the URL so the page stays shareable.

No JS? Fill the form by hand. The geolocation button needs JavaScript.